星链-36244(STARLINK-36244)

导读 | 豆包AI

STARLINK-36244(NORAD编号68145)是美国SpaceX星链(Starlink)项目旗下的低轨互联网通信卫星,采用Starlink V1.0平台设计,归属美国太空探索技术公司运营制造,于2024年12月8日发射升空。 作为星链星座组成部分,它运行在近地轨道,近地点约355公里、远地点约357公里,轨道倾角43度,轨道周期约91.66分钟,主要为全球提供高速低延迟互联网接入服务,支持偏远地区联网与特定行业通信需求。目前该卫星处于在轨正常运行状态。

基本信息
目录编号:
68145
目录名称:
STARLINK-36244
国际标识:
2026-049D
轨道中心:
EARTH
卫星名称:
星链-36244
卫星全名:
星链-36244(STARLINK-36244)
卫星状态:
在轨 (已飞行73 天)
发射日期:
2026-03-13 UTC
国别 :
美国 (US)
星等 :
--
轨道信息
数据来源 国际轨道数据
星历时间: 2026-05-25T08:15:25+0800
9小时前
查看轨道信息
半长轴: 6843.675km
偏心率: 0.0001134
轨道倾角: 97.284°
近地点辐角 111.179°
升交点赤经 166.667°
平近点角 248.957°
近地点: 464.761km
远地点: 466.315km
周期: 93.906分钟
每日圈数: 15.334468
详细信息
固有亮度:
5
最大亮度:
2.5
卫星平台:
Starlink V1.0
覆盖范围:
全球
运营商:
太空探索技术公司
运营商所在国:
美国
制造商(研发单位):
太空探索技术公司
制造商所在国:
美国
使用方式:
暂无
卫星简介
Starlink 计划是 SpaceX 推出的全球卫星互联网项目,通过发射低轨道卫星,为全球尤其是偏远地区提供高速、低延迟的互联网服务。自 2019 年起,Starlink 已部署数千颗卫星,旨在缩小全球数字鸿沟,推动互联网普及。该项目还为军事、航空等行业提供通信支持,带来广泛经济效益。
2D轨道图
3D轨道图
轨道高度分析图
轨道倾角分析图
轨道综合分析图
查看轨道综合分析图